EW9790 Weather Reports


time (UTC)temp
F
wind
direction
speed
knots
gust
knots
rain 1hr
in
rain 24hr
in
rain mn
in
humidity
%
barometer
mb
20260510204901 83 32 0.9 4.3 0.00 0.00 0.00 50 1014.6
20260510204129 83 326 0.9 5.2 0.00 0.00 0.00 52 1014.6
20260510203630 82 290 1.7 5.2 0.00 0.00 0.00 54 1014.7
20260510203128 82 255 1.7 4.3 0.00 0.00 0.00 56 1014.8
20260510202627 82 278 0.9 3.5 0.00 0.00 0.00 56 1014.7
20260510202126 82 287 0.9 4.3 0.00 0.00 0.00 57 1014.8
20260510201626 82 269 1.7 5.2 0.00 0.00 0.00 56 1014.9
20260510201127 82 344 0.9 5.2 0.00 0.00 0.00 55 1014.8
20260510200627 83 266 0.9 2.6 0.00 0.00 0.00 53 1014.9
20260510200126 83 43 0.9 2.6 0.00 0.00 0.00 54 1014.9
20260510195626 82 338 0.9 2.6 0.00 0.00 0.00 54 1015.0
20260510195126 82 255 0.0 1.7 0.00 0.00 0.00 54 1015.1
20260510194628 82 280 0.9 3.5 0.00 0.00 0.00 58 1015.2
20260510194126 82 264 0.9 3.5 0.00 0.00 0.00 56 1015.2
20260510193624 82 252 0.9 2.6 0.00 0.00 0.00 53 1015.2
20260510193356 82 27 0.9 2.6 0.00 0.00 0.00 55 1015.3
20260510192624 82 245 0.9 2.6 0.00 0.00 0.00 53 1015.2
20260510192125 83 249 0.9 2.6 0.00 0.00 0.00 53 1015.2
20260510191624 83 91 0.0 2.6 0.00 0.00 0.00 56 1015.2
20260510191125 83 202 0.9 3.5 0.00 0.00 0.00 49 1015.1
20260510190623 83 1 0.9 3.5 0.00 0.00 0.00 53 1015.1
20260510190126 83 94 0.9 2.6 0.00 0.00 0.00 51 1015.1
20260510185853 83 229 0.9 2.6 0.00 0.00 0.00 52 1015.1
20260510185121 82 255 0.9 1.7 0.00 0.00 0.00 57 1015.2
20260510184623 82 259 0.9 1.7 0.00 0.00 0.00 50 1015.2
20260510184351 82 302 0.0 2.6 0.00 0.00 0.00 52 1015.2
20260510183621 81 255 0.9 3.5 0.00 0.00 0.00 57 1015.2
20260510183121 82 32 0.9 3.5 0.00 0.00 0.00 52 1015.2
20260510182617 82 266 0.0 3.5 0.00 0.00 0.00 52 1015.1
20260510182117 82 274 0.9 3.5 0.00 0.00 0.00 56 1015.1
20260510181850 82 357 0.9 2.6 0.00 0.00 0.00 49 1015.1
20260510181117 81 245 0.9 3.5 0.00 0.00 0.00 52 1015.1
20260510180618 81 259 0.9 3.5 0.00 0.00 0.00 50 1015.1
20260510180117 81 266 0.9 2.6 0.00 0.00 0.00 54 1015.2
20260510175851 81 311 0.9 5.2 0.00 0.00 0.00 54 1015.2
20260510175117 81 254 0.9 5.2 0.00 0.00 0.00 53 1015.3
20260510174617 81 27 0.9 4.3 0.00 0.00 0.00 55 1015.3
20260510174116 81 8 0.0 0.9 0.00 0.00 0.00 50 1015.3
20260510173616 80 281 0.9 3.5 0.00 0.00 0.00 58 1015.4
20260510173117 80 263 0.9 3.5 0.00 0.00 0.00 54 1015.5
20260510172615 80 228 0.9 2.6 0.00 0.00 0.00 53 1015.4
20260510172116 80 269 0.9 3.5 0.00 0.00 0.00 54 1015.5
20260510171845 80 253 0.9 3.5 0.00 0.00 0.00 56 1015.6
20260510171115 80 255 0.9 3.5 0.00 0.00 0.00 52 1015.6
20260510170615 80 246 0.9 3.5 0.00 0.00 0.00 54 1015.7
20260510170114 80 250 0.9 3.5 0.00 0.00 0.00 54 1015.6
20260510165613 80 264 0.9 3.5 0.00 0.00 0.00 55 1015.6
20260510165112 80 260 0.9 3.5 0.00 0.00 0.00 50 1015.6
20260510164612 81 311 0.9 3.5 0.00 0.00 0.00 55 1015.5
20260510164112 81 276 0.9 3.5 0.00 0.00 0.00 54 1015.6
20260510163612 80 266 0.9 3.5 0.00 0.00 0.00 55 1015.6
20260510163112 80 261 0.9 3.5 0.00 0.00 0.00 54 1015.7
20260510162612 80 332 0.9 1.7 0.00 0.00 0.00 57 1015.7
20260510162113 80 280 0.9 3.5 0.00 0.00 0.00 55 1015.7
20260510161613 79 23 0.9 4.3 0.00 0.00 0.00 58 1015.7
20260510161112 79 255 0.9 4.3 0.00 0.00 0.00 58 1015.8
20260510160612 79 297 0.9 4.3 0.00 0.00 0.00 58 1015.8
20260510160117 79 264 0.0 2.6 0.00 0.00 0.00 56 1015.8
20260510160112 78 280 0.9 4.3 0.00 0.00 0.00 59 1015.7
20260510155112 80 295 0.9 2.6 0.00 0.00 0.00 58 1015.6
20260510154612 79 252 0.9 4.3 0.00 0.00 0.00 58 1015.6
20260510154348 79 249 0.0 0.9 0.00 0.00 0.00 59 1015.4
20260510154112 79 249 0.0 4.3 0.00 0.00 0.00 55 1015.5
20260510153343 79 249 0.0 1.7 0.00 0.00 0.00 61 1015.4
20260510152613 78 249 0.0 1.7 0.00 0.00 0.00 57 1015.3
20260510152112 78 231 0.0 0.9 0.00 0.00 0.00 60 1015.2
20260510151613 78 247 0.0 2.6 0.00 0.00 0.00 59 1015.2
20260510151111 78 256 0.9 2.6 0.00 0.00 0.00 60 1015.2
20260510150611 78 226 0.0 1.7 0.00 0.00 0.00 62 1015.1
20260510150342 76 224 0.9 3.5 0.00 0.00 0.00 61 1015.1
20260510145845 76 236 0.9 3.5 0.00 0.00 0.00 62 1015.2
20260510145113 75 130 0.9 2.6 0.00 0.00 0.00 63 1015.2
20260510144612 75 219 0.9 2.6 0.00 0.00 0.00 67 1015.1
20260510144342 74 113 0.9 2.6 0.00 0.00 0.00 65 1014.9
20260510143611 74 91 0.9 2.6 0.00 0.00 0.00 66 1015.0
20260510143111 74 113 0.9 2.6 0.00 0.00 0.00 67 1015.0
20260510142613 74 207 0.0 1.7 0.00 0.00 0.00 66 1015.1
20260510142113 73 134 0.0 1.7 0.00 0.00 0.00 70 1015.1
20260510141612 73 219 0.0 1.7 0.00 0.00 0.00 69 1015.0
20260510141112 72 219 0.0 1.7 0.00 0.00 0.00 70 1015.1
20260510140843 71 219 0.0 1.7 0.00 0.00 0.00 69 1015.1
20260510140111 71 131 0.0 1.7 0.00 0.00 0.00 71 1015.0
20260510135612 70 199 0.0 1.7 0.00 0.00 0.00 71 1015.0
20260510135116 69 208 0.0 1.7 0.00 0.00 0.00 72 1015.1
20260510135111 69 250 0.0 1.7 0.00 0.00 0.00 73 1015.0
20260510134344 69 212 0.0 1.7 0.00 0.00 0.00 74 1015.1
20260510133611 69 221 0.0 1.7 0.00 0.00 0.00 74 1015.0
20260510133344 68 136 0.0 1.7 0.00 0.00 0.00 75 1014.9
20260510132613 67 165 0.0 0.0 0.00 0.00 0.00 79 1015.0
20260510132344 66 164 0.0 0.0 0.00 0.00 0.00 83 1015.1
20260510131612 65 164 0.0 0.0 0.00 0.00 0.00 83 1015.2
20260510131112 65 164 0.0 0.0 0.00 0.00 0.00 84 1015.1
20260510130610 64 164 0.0 0.0 0.00 0.00 0.00 85 1015.0
20260510130108 63 164 0.0 0.0 0.00 0.00 0.00 87 1014.9
20260510125840 63 163 0.0 0.0 0.00 0.00 0.00 89 1014.9
20260510125339 61 164 0.0 0.0 0.00 0.00 0.00 92 1014.9
20260510124608 60 164 0.0 0.0 0.00 0.00 0.00 93 1014.9
20260510124107 60 164 0.0 0.0 0.00 0.00 0.00 97 1014.8
20260510123608 58 164 0.0 0.0 0.00 0.00 0.00 98 1014.8
20260510123107 57 164 0.0 0.0 0.00 0.00 0.00 98 1014.7
20260510122608 56 164 0.0 0.0 0.00 0.00 0.00 98 1014.6
20260510122107 55 164 0.0 0.0 0.00 0.00 0.00 98 1014.6
20260510121607 54 164 0.0 0.0 0.00 0.00 0.00 98 1014.6
20260510121108 54 164 0.0 0.0 0.00 0.00 0.00 98 1014.5
20260510120607 54 164 0.0 0.0 0.00 0.00 0.00 98 1014.5
20260510120113 52 164 0.0 0.0 0.00 0.00 0.00 98 1014.4
20260510120107 53 164 0.0 0.0 0.00 0.00 0.00 98 1014.4
20260510115336 52 164 0.0 0.0 0.00 0.00 0.00 98 1014.3
20260510114606 52 164 0.0 0.0 0.00 0.00 0.00 98 1014.3
20260510114335 51 164 0.0 0.0 0.00 0.00 0.00 98 1014.2
20260510113605 51 164 0.0 0.0 0.00 0.00 0.00 98 1014.1
20260510113106 51 164 0.0 0.0 0.00 0.00 0.00 98 1013.9
20260510112605 51 164 0.0 0.9 0.00 0.00 0.00 97 1013.9
20260510112105 51 164 0.0 1.7 0.00 0.00 0.00 98 1013.7
20260510111604 51 164 0.0 1.7 0.00 0.00 0.00 97 1013.8
20260510111105 51 110 0.0 0.9 0.00 0.00 0.00 97 1013.9
20260510110604 51 110 0.9 0.9 0.00 0.00 0.00 98 1013.6
20260510110334 51 109 0.9 1.7 0.00 0.00 0.00 98 1013.8
20260510105604 51 109 0.0 1.7 0.00 0.00 0.00 98 1013.7
20260510105104 50 170 0.0 0.9 0.00 0.00 0.00 98 1013.8
20260510104608 50 163 0.0 1.7 0.00 0.00 0.00 98 1013.4
20260510104604 50 163 0.0 0.9 0.00 0.00 0.00 98 1013.8
20260510103603 50 163 0.0 1.7 0.00 0.00 0.00 98 1013.3
20260510103102 49 202 0.0 1.7 0.00 0.00 0.00 98 1013.3
20260510102601 49 248 0.0 0.0 0.00 0.00 0.00 98 1013.3
20260510102102 49 248 0.0 0.0 0.00 0.00 0.00 97 1013.1
20260510101601 49 248 0.0 0.0 0.00 0.00 0.00 97 1013.1
20260510101101 49 248 0.0 0.0 0.00 0.00 0.00 97 1013.0
20260510100602 49 248 0.0 0.0 0.00 0.00 0.00 97 1012.9
20260510100100 49 248 0.0 0.0 0.00 0.00 0.00 97 1012.9
20260510095834 49 248 0.0 0.0 0.00 0.00 0.00 97 1012.6
20260510095101 50 248 0.0 0.0 0.00 0.00 0.00 97 1012.5
20260510094601 50 248 0.0 0.0 0.00 0.00 0.00 97 1012.4
20260510094106 50 248 0.0 0.0 0.00 0.00 0.00 97 1012.2
20260510094102 50 248 0.0 0.0 0.00 0.00 0.00 97 1012.4
20260510093329 50 248 0.0 0.0 0.00 0.00 0.00 97 1012.3
20260510092559 50 248 0.0 0.0 0.00 0.00 0.00 96 1012.2
20260510092100 50 248 0.0 0.0 0.00 0.00 0.00 97 1012.3
20260510091831 50 248 0.0 0.0 0.00 0.00 0.00 97 1012.3
20260510091100 50 248 0.0 0.0 0.00 0.00 0.00 97 1012.3
20260510090600 50 248 0.0 0.0 0.00 0.00 0.00 96 1012.4
20260510090100 50 248 0.0 0.0 0.00 0.00 0.00 96 1012.3
20260510085559 51 248 0.0 0.0 0.00 0.00 0.00 96 1012.2
20260510085100 51 248 0.0 0.0 0.00 0.00 0.00 97 1012.1
20260510084557 51 248 0.0 0.0 0.00 0.00 0.00 96 1012.1
20260510084057 51 248 0.0 0.0 0.00 0.00 0.00 97 1012.0
20260510083557 51 248 0.0 0.0 0.00 0.00 0.00 96 1012.0
20260510083329 51 248 0.0 0.0 0.00 0.00 0.00 96 1011.9
20260510082558 51 248 0.0 0.0 0.00 0.00 0.00 96 1011.8
20260510082058 51 248 0.0 0.0 0.00 0.00 0.00 96 1011.8
20260510081558 51 248 0.0 0.0 0.00 0.00 0.00 96 1011.7
20260510081058 51 248 0.0 0.0 0.00 0.00 0.00 96 1011.7
20260510080556 51 248 0.0 0.0 0.00 0.00 0.00 96 1011.6
20260510080057 51 248 0.0 0.0 0.00 0.00 0.00 96 1011.7
20260510075827 51 248 0.0 0.0 0.00 0.00 0.00 96 1011.7
20260510075058 51 248 0.0 0.0 0.00 0.00 0.00 95 1011.7
20260510074557 51 248 0.0 0.0 0.00 0.00 0.00 95 1011.7
20260510074058 52 248 0.0 0.0 0.00 0.00 0.00 96 1011.8
20260510073557 52 248 0.0 0.0 0.00 0.00 0.00 96 1011.8
20260510073055 52 248 0.0 0.0 0.00 0.00 0.00 96 1011.8
20260510072556 52 248 0.0 0.0 0.00 0.00 0.00 95 1011.8
20260510072325 52 248 0.0 0.0 0.00 0.00 0.00 96 1011.7
20260510071555 52 248 0.0 0.0 0.00 0.00 0.00 96 1011.8
20260510071052 52 248 0.0 0.0 0.00 0.00 0.00 96 1011.9
20260510070553 52 248 0.0 0.0 0.00 0.00 0.00 96 1011.8
20260510070053 52 248 0.0 0.0 0.00 0.00 0.00 95 1011.6
20260510065554 52 248 0.0 0.0 0.00 0.00 0.00 95 1011.6
20260510065052 52 248 0.0 0.0 0.00 0.00 0.00 95 1011.5
20260510064552 52 248 0.0 0.0 0.00 0.00 0.00 95 1011.6
20260510064054 52 248 0.0 0.0 0.00 0.00 0.00 94 1011.5
20260510063826 52 248 0.0 0.0 0.00 0.00 0.00 95 1011.5
20260510063054 52 248 0.0 0.0 0.00 0.00 0.00 95 1011.4
20260510062552 52 248 0.0 0.0 0.00 0.00 0.00 95 1011.5
20260510062053 52 248 0.0 0.0 0.00 0.00 0.00 94 1011.5
20260510061552 52 248 0.0 0.0 0.00 0.00 0.00 94 1011.4
20260510061053 52 248 0.0 0.0 0.00 0.00 0.00 94 1011.4
20260510060552 52 248 0.0 0.0 0.00 0.00 0.00 94 1011.5
20260510060053 52 248 0.0 0.0 0.00 0.00 0.00 94 1011.5
20260510055823 52 248 0.0 0.0 0.00 0.00 0.00 94 1011.6
20260510055053 52 248 0.0 0.0 0.00 0.00 0.00 93 1011.5
20260510054553 52 248 0.0 0.0 0.00 0.00 0.00 93 1011.4
20260510054054 53 248 0.0 0.0 0.00 0.00 0.00 93 1011.4
20260510053552 53 248 0.0 0.0 0.00 0.00 0.00 93 1011.4
20260510053326 53 248 0.0 0.0 0.00 0.00 0.00 93 1011.4
20260510052554 53 248 0.0 0.0 0.00 0.00 0.00 92 1011.4
20260510052054 53 248 0.0 0.0 0.00 0.00 0.00 93 1011.3
20260510051552 53 248 0.0 0.0 0.00 0.00 0.00 93 1011.2
20260510051325 53 248 0.0 0.0 0.00 0.00 0.00 93 1011.3
20260510050553 53 248 0.0 0.0 0.00 0.00 0.00 92 1011.3
20260510050054 53 248 0.0 0.0 0.00 0.00 0.00 92 1011.3
20260510045552 53 248 0.0 0.0 0.00 0.00 0.00 92 1011.3
20260510045051 53 248 0.0 0.0 0.00 0.00 0.00 92 1011.2
20260510044550 53 248 0.0 0.0 0.00 0.00 0.00 92 1011.2
20260510044050 53 248 0.0 0.0 0.00 0.00 0.00 92 1011.2
20260510043549 53 248 0.0 0.0 0.00 0.00 0.00 92 1011.2
20260510043049 53 248 0.0 0.0 0.00 0.00 0.00 91 1011.3
20260510042822 53 248 0.0 0.0 0.00 0.00 0.00 91 1011.3
20260510042049 53 248 0.0 0.0 0.00 0.00 0.00 91 1011.3
20260510041549 53 248 0.0 0.0 0.00 0.00 0.00 91 1011.2
20260510041050 53 248 0.0 0.0 0.00 0.00 0.00 91 1011.3
20260510040819 53 248 0.0 0.0 0.00 0.00 0.00 90 1011.2
20260510040324 54 248 0.0 0.0 0.00 0.00 0.00 90 1011.3
20260510040048 54 248 0.0 0.0 0.00 0.00 0.00 90 1011.3
20260510035047 54 248 0.0 0.0 0.00 0.00 0.00 89 1011.3
20260510034547 54 248 0.0 0.0 0.00 0.00 0.00 89 1011.3
20260510034047 54 248 0.0 0.0 0.00 0.00 0.00 89 1011.3
20260510033547 54 248 0.0 0.0 0.00 0.00 0.00 89 1011.3
20260510033048 54 248 0.0 0.0 0.00 0.00 0.00 89 1011.3
20260510032548 54 248 0.0 0.0 0.00 0.00 0.00 89 1011.3
20260510032047 55 248 0.0 0.0 0.00 0.00 0.00 89 1011.3
20260510031818 55 248 0.0 0.0 0.00 0.00 0.00 89 1011.4
20260510031044 55 248 0.0 0.0 0.00 0.00 0.00 89 1011.4
20260510030817 55 248 0.0 0.0 0.00 0.00 0.00 89 1011.4
20260510030046 55 248 0.0 0.0 0.00 0.00 0.00 88 1011.3
20260510025546 55 248 0.0 0.0 0.00 0.00 0.00 87 1011.3
20260510025046 56 248 0.0 0.0 0.00 0.00 0.00 87 1011.2
20260510024545 56 248 0.0 0.0 0.00 0.00 0.00 86 1011.2
20260510024045 56 248 0.0 0.0 0.00 0.00 0.00 86 1011.1
20260510023544 56 248 0.0 0.0 0.00 0.00 0.00 85 1011.1
20260510023046 56 248 0.0 0.0 0.00 0.00 0.00 85 1011.0
20260510022545 56 248 0.0 0.0 0.00 0.00 0.00 85 1011.0
20260510022046 56 248 0.0 0.0 0.00 0.00 0.00 84 1010.9
20260510021550 57 248 0.0 0.0 0.00 0.00 0.00 84 1010.8
20260510021546 57 248 0.0 0.0 0.00 0.00 0.00 84 1010.9
20260510020544 57 248 0.0 0.0 0.00 0.00 0.00 83 1010.8
20260510020046 58 248 0.0 0.0 0.00 0.00 0.00 82 1010.7
20260510015545 58 248 0.0 0.0 0.00 0.00 0.00 82 1010.6
20260510015044 58 248 0.0 0.0 0.00 0.00 0.00 82 1010.5
20260510014544 58 248 0.0 0.0 0.00 0.00 0.00 81 1010.4
20260510014043 59 248 0.0 0.0 0.00 0.00 0.00 79 1010.3
20260510013542 59 248 0.0 0.0 0.00 0.00 0.00 78 1010.3
20260510013040 60 248 0.0 0.0 0.00 0.00 0.00 78 1010.2
20260510012542 60 248 0.0 0.0 0.00 0.00 0.00 78 1010.2
20260510012041 61 248 0.0 0.0 0.00 0.00 0.00 77 1010.1
20260510011542 61 248 0.0 0.0 0.00 0.00 0.00 76 1010.0
20260510011040 62 248 0.0 0.0 0.00 0.00 0.00 75 1010.0
20260510010541 62 248 0.0 0.0 0.00 0.00 0.00 75 1009.9
20260510010041 63 248 0.0 0.0 0.00 0.00 0.00 74 1009.9
20260510005541 64 248 0.0 0.0 0.00 0.00 0.00 73 1009.8
20260510005312 64 248 0.0 0.0 0.00 0.00 0.00 72 1009.7
20260510004540 65 248 0.0 0.0 0.00 0.00 0.00 72 1009.7
20260510004042 66 248 0.0 0.0 0.00 0.00 0.00 71 1009.7
20260510003542 67 248 0.0 0.0 0.00 0.00 0.00 70 1009.6
20260510003040 68 248 0.0 0.0 0.00 0.00 0.00 68 1009.6
20260510002814 69 248 0.0 0.0 0.00 0.00 0.00 65 1009.5
20260510002041 70 248 0.0 0.0 0.00 0.00 0.00 62 1009.5
20260510001541 71 248 0.0 0.0 0.00 0.00 0.00 60 1009.5
20260510001040 73 248 0.0 0.9 0.00 0.00 0.00 58 1009.4
20260510000540 74 248 0.0 0.9 0.00 0.00 0.00 57 1009.4
20260510000040 76 248 0.0 0.9 0.00 0.00 0.00 53 1009.4
20260509235819 79 248 0.0 0.9 0.00 0.00 0.00 49 1009.3
20260509235540 77 248 0.0 0.9 0.00 0.00 0.00 51 1009.4
20260509234541 80 248 0.0 0.0 0.00 0.00 0.00 50 1009.2
20260509234041 81 248 0.0 0.0 0.00 0.00 0.00 47 1009.1
20260509233542 83 248 0.0 0.0 0.00 0.00 0.00 48 1009.1
20260509233040 83 248 0.0 0.0 0.00 0.00 0.00 47 1009.0
20260509232541 83 248 0.0 0.0 0.00 0.00 0.00 48 1009.1
20260509232040 83 248 0.0 0.9 0.00 0.00 0.00 46 1009.1
20260509231538 85 248 0.0 0.9 0.00 0.00 0.00 46 1009.1
20260509231044 87 248 0.0 0.9 0.00 0.00 0.00 44 1009.2
20260509231039 87 248 0.0 0.9 0.00 0.00 0.00 42 1009.1
20260509230039 87 248 0.0 0.9 0.00 0.00 0.00 39 1009.2
20260509225538 88 248 0.0 0.0 0.00 0.00 0.00 38 1009.2
20260509225039 87 248 0.0 0.9 0.00 0.00 0.00 42 1009.2
20260509224538 86 248 0.0 1.7 0.00 0.00 0.00 40 1009.2
20260509224037 86 248 0.0 1.7 0.00 0.00 0.00 36 1009.2
20260509223808 85 217 0.0 0.9 0.00 0.00 0.00 36 1009.1
20260509223035 85 217 0.0 0.9 0.00 0.00 0.00 32 1009.1
20260509222807 85 217 0.0 0.9 0.00 0.00 0.00 33 1009.2
20260509222036 84 217 0.0 1.7 0.00 0.00 0.00 31 1009.2
20260509221536 84 266 0.0 1.7 0.00 0.00 0.00 33 1009.2
20260509221032 84 92 0.0 1.7 0.00 0.00 0.00 34 1009.2
20260509220533 84 101 0.0 1.7 0.00 0.00 0.00 34 1009.2
20260509220033 84 230 0.0 1.7 0.00 0.00 0.00 32 1009.1
20260509215530 83 18 0.0 1.7 0.00 0.00 0.00 36 1009.1
20260509215031 83 263 0.0 1.7 0.00 0.00 0.00 37 1009.1
20260509214530 83 263 0.0 1.7 0.00 0.00 0.00 36 1009.0
20260509214029 83 260 0.0 1.7 0.00 0.00 0.00 35 1009.0
20260509213530 82 270 0.9 2.6 0.00 0.00 0.00 39 1009.0
20260509213028 82 276 0.9 2.6 0.00 0.00 0.00 40 1008.9
20260509212528 82 219 0.9 2.6 0.00 0.00 0.00 39 1008.9
20260509212259 83 232 0.0 1.7 0.00 0.00 0.00 38 1008.9
20260509211528 82 123 0.9 1.7 0.00 0.00 0.00 36 1008.9
20260509211302 82 250 0.9 1.7 0.00 0.00 0.00 42 1008.8
20260509210529 82 280 0.9 2.6 0.00 0.00 0.00 44 1008.9
20260509210026 82 245 0.0 2.6 0.00 0.00 0.00 44 1008.8
20260509205756 82 276 0.9 2.6 0.00 0.00 0.00 44 1008.9